[[{"header":{"parameterUnit":"m.s-1","parameterCategory":1,"la1":30.2991,"la2":30.254,"lo1":-89.0895,"lo2":-89.0444,"dy":0.0017,"dx":0.0017,"nx":28,"ny":28,"refTime":"2024-06-02T21:00:00:Z","depth":0,"parameterNumber":2,"parameterNumberName":"U-component_of_WINDS"},"data":[0,0,0,0,0,0,0,0,0,0,0,0,0,0,0,0,0,0,0,0,0,0,0,0,0,0,0,0,0,0,0,0,0,0,0,0,0,0,0,0,0,0,0,0,0,0,0,0,0,0,0,0,0,0,0,0,0,0,-0.6249,-0.6249,0,-0.6257,-0.6257,-0.6258,-0.6267,-0.6268,-0.6268,-0.6268,-0.6276,-0.6276,-0.6276,0,0,0,0,0,0,0,0,0,0,0,0,0,-0.6242,-0.6242,-0.6249,-0.6249,-0.6249,-0.6257,-0.6257,-0.6258,-0.6267,-0.6268,-0.6268,-0.6268,-0.6276,-0.6276,-0.6276,0,0,0,0,0,0,0,0,0,0,0,0,0,-0.6247,-0.6242,-0.6249,-0.6255,-0.6255,-0.6257,-0.6257,-0.6258,-0.6267,-0.6268,-0.6268,-0.6268,-0.6276,-0.6276,-0.6276,-0.6273,0,0,-0.6277,-0.6277,0,0,0,0,0,0,0,0,-0.6247,-0.6247,-0.6254,-0.6254,-0.6255,-0.6262,-0.6258,-0.6263,-0.6267,-0.6263,-0.6268,-0.6268,-0.6271,-0.6272,-0.6273,-0.6273,-0.6273,-0.6277,-0.6277,-0.6277,-0.6277,0,0,0,0,0,0,0,-0.6246,-0.6247,-0.6252,-0.6254,-0.6255,-0.6258,-0.6259,-0.6259,-0.6266,-0.6263,-0.6264,-0.6265,-0.6272,-0.6273,-0.6273,-0.6274,-0.6277,-0.6277,-0.6277,-0.6277,-0.6274,-0.6273,0,0,0,0,0,0,-0.6245,-0.6246,-0.6252,-0.6252,-0.6251,-0.6258,-0.6259,-0.6259,-0.6266,-0.6267,-0.6265,-0.6265,-0.6272,-0.6273,-0.6273,-0.6271,-0.6277,-0.6277,-0.6277,-0.6274,-0.6273,-0.6273,0,0,0,0,0,0,-0.6245,-0.6245,-0.6251,-0.625,-0.6251,-0.6257,-0.6258,-0.6259,-0.626,-0.6267,-0.6268,-0.6265,-0.6273,-0.6273,-0.6273,-0.6271,-0.6277,-0.6277,-0.6274,-0.6274,-0.6273,-0.6264,0,0,0,0,0,0,-0.6244,-0.6245,-0.6243,-0.6249,-0.6251,-0.6251,-0.6258,-0.6259,-0.6261,-0.6262,-0.6267,-0.6268,-0.6273,-0.6273,-0.6273,-0.6271,-0.6277,-0.6274,-0.6274,-0.6273,-0.6265,-0.6264,-0.6263,0,0,0,0,0,-0.6244,-0.624,-0.6243,-0.6244,-0.6248,-0.625,-0.6251,-0.6257,-0.626,-0.6259,-0.6264,-0.6268,-0.6271,-0.6273,-0.6273,-0.6271,-0.6274,-0.6274,-0.6273,-0.6265,-0.6264,-0.6263,0,0,0,0,0,0,-0.6232,-0.6241,-0.6244,-0.6242,-0.6246,-0.6252,-0.625,-0.6255,-0.6258,-0.6258,-0.6265,-0.6266,-0.6266,-0.6269,-0.627,-0.6269,-0.6274,-0.6273,-0.6267,-0.6266,-0.6265,-0.6264,-0.6277,0,0,0,0,0,-0.6229,-0.623,-0.6238,-0.6235,-0.6236,-0.6243,-0.6244,-0.6249,-0.6253,-0.6254,-0.6258,-0.6262,-0.6264,-0.6265,-0.6268,-0.6266,-0.6268,-0.6265,-0.6264,-0.6263,-0.6262,-0.6263,-0.6263,-0.6272,-0.6272,-0.6272,0,0,-0.6223,-0.6228,-0.6228,-0.6232,-0.6236,-0.6237,-0.6244,-0.6245,-0.6246,-0.6254,-0.6255,-0.6258,-0.6263,-0.6263,-0.6263,-0.6265,-0.6261,-0.6262,-0.6262,-0.6262,-0.6263,-0.6262,-0.6261,-0.6272,-0.6272,-0.6272,0,0,-0.6213,-0.6216,-0.6215,-0.6219,-0.6224,-0.6229,-0.6229,-0.6235,-0.6238,-0.6239,-0.6246,-0.6248,-0.6251,-0.6255,-0.6257,-0.6251,-0.6255,-0.6252,-0.6246,-0.6247,-0.6246,-0.6246,-0.6244,-0.6244,-0.6251,-0.6251,-0.6251,0,-0.6204,-0.6206,-0.6213,-0.6214,-0.6217,-0.6225,-0.6225,-0.6228,-0.6234,-0.6235,-0.6238,-0.6244,-0.6247,-0.6249,-0.6248,-0.6249,-0.625,-0.625,-0.6246,-0.6245,-0.6245,-0.6244,-0.6243,-0.6251,-0.6251,-0.6251,-0.6251,0,-0.6196,-0.6198,-0.6196,-0.6202,-0.6205,-0.6205,-0.6213,-0.6214,-0.6219,-0.6224,-0.6226,-0.6231,-0.6236,-0.6237,-0.6241,-0.6239,-0.6241,-0.6244,-0.6249,-0.6243,-0.6242,-0.6242,-0.625,-0.625,-0.625,-0.625,0,0,-0.6176,-0.6189,-0.6188,-0.6192,-0.62,-0.6201,-0.6202,-0.6207,-0.6209,-0.6214,-0.6215,-0.6219,-0.6224,-0.6226,-0.6231,-0.6232,-0.6228,-0.6236,-0.6236,-0.6235,-0.6228,-0.6225,-0.6225,-0.6232,-0.6232,-0.6232,-0.6228,0,-0.6168,-0.617,-0.6178,-0.6178,-0.6181,-0.619,-0.6191,-0.6197,-0.6202,-0.6205,-0.6211,-0.6214,-0.6219,-0.6221,-0.6223,-0.6229,-0.6227,-0.6229,-0.6234,-0.6234,-0.6232,-0.6224,-0.622,-0.6217,-0.6228,-0.6228,-0.6228,0,-0.6157,-0.6162,-0.6163,-0.6173,-0.6174,-0.6175,-0.6181,-0.6184,-0.6191,-0.6195,-0.6199,-0.6205,-0.6208,-0.6213,-0.6218,-0.6219,-0.6221,-0.6225,-0.6225,-0.6226,-0.623,-0.6225,-0.6216,-0.6215,-0.6227,-0.6227,-0.6227,0,-0.6143,-0.615,-0.6152,-0.6155,-0.6166,-0.6167,-0.6172,-0.6179,-0.6182,-0.6188,-0.6191,-0.6196,-0.6199,-0.6204,-0.6212,-0.6215,-0.6216,-0.6221,-0.622,-0.622,-0.6219,-0.6219,-0.6211,-0.6221,-0.6221,-0.6221,-0.6221,0,-0.6133,-0.6133,-0.6147,-0.6148,-0.6149,-0.6159,-0.616,-0.6165,-0.6172,-0.6175,-0.6184,-0.6187,-0.6197,-0.6202,-0.6208,-0.6212,-0.6213,-0.6217,-0.6218,-0.6216,-0.6215,-0.6217,-0.6218,-0.6221,-0.6221,-0.6221,-0.6221,0,-0.6117,-0.6126,-0.6129,-0.614,-0.6143,-0.6144,-0.6154,-0.6156,-0.6163,-0.6166,-0.6168,-0.6178,-0.6184,-0.6193,-0.6201,-0.6206,-0.6208,-0.6211,-0.6206,-0.6207,-0.6206,-0.6206,-0.6198,-0.6198,-0.6208,-0.6208,-0.6208,0,-0.611,-0.611,-0.6122,-0.6125,-0.613,-0.6134,-0.6138,-0.6149,-0.6152,-0.6162,-0.6163,-0.617,-0.6175,-0.6184,-0.6193,-0.6199,-0.6202,-0.6199,-0.6203,-0.6202,-0.6203,-0.6203,-0.6204,-0.6198,-0.6198,-0.6198,-0.6198,0,-0.6096,-0.6101,-0.6106,-0.6113,-0.6118,-0.6124,-0.6131,-0.6133,-0.6145,-0.6148,-0.6155,-0.6159,-0.6169,-0.6176,-0.6184,-0.6189,-0.6196,-0.6197,-0.6197,-0.6194,-0.6192,-0.6194,-0.6204,-0.6197,-0.6197,-0.6197,-0.6197,-0.6197,-0.6084,-0.6086,-0.6095,-0.6101,-0.6108,-0.6114,-0.6117,-0.6125,-0.6131,-0.614,-0.6146,-0.6152,-0.6161,-0.6173,-0.6179,-0.6184,-0.6187,-0.6187,-0.6187,-0.6187,-0.6186,-0.6191,-0.6186,-0.6186,-0.6186,-0.6186,-0.6186,0,-0.6071,-0.6078,-0.6084,-0.6094,-0.6099,-0.6106,-0.6114,-0.6118,-0.6123,-0.6132,-0.6138,-0.6146,-0.6153,-0.6163,-0.6172,-0.6174,-0.6178,-0.6176,-0.6176,-0.6177,-0.6183,-0.6182,-0.6173,-0.6173,-0.6173,-0.6173,-0.6173,-0.6173,-0.6065,-0.6069,-0.6076,-0.6083,-0.6091,-0.6097,-0.6102,-0.6108,-0.6115,-0.6124,-0.613,-0.6137,-0.6147,-0.6156,-0.6164,-0.6166,-0.6169,-0.6167,-0.6171,-0.6176,-0.6177,-0.6178,-0.6177,-0.6167,-0.6167,-0.6165,-0.6165,-0.6165]},{"header":{"parameterUnit":"m.s-1","parameterCategory":1,"la1":30.2991,"la2":30.254,"lo1":-89.0895,"lo2":-89.0444,"dy":0.0017,"dx":0.0017,"nx":28,"ny":28,"refTime":"2024-06-02T21:00:00:Z","depth":0,"parameterNumber":3,"parameterNumberName":"V-component_of_WINDS"},"data":[0,0,0,0,0,0,0,0,0,0,0,0,0,0,0,0,0,0,0,0,0,0,0,0,0,0,0,0,0,0,0,0,0,0,0,0,0,0,0,0,0,0,0,0,0,0,0,0,0,0,0,0,0,0,0,0,0,0,5.2354,5.2354,0,5.232,5.232,5.2319,5.2217,5.2214,5.2212,5.221,5.2177,5.2179,5.218,0,0,0,0,0,0,0,0,0,0,0,0,0,5.2334,5.2335,5.2354,5.2354,5.2353,5.232,5.232,5.2319,5.2217,5.2214,5.2212,5.2209,5.2177,5.2178,5.218,0,0,0,0,0,0,0,0,0,0,0,0,0,5.2326,5.2335,5.2354,5.2298,5.2293,5.232,5.232,5.2319,5.2218,5.2214,5.2211,5.2208,5.2177,5.2178,5.218,5.2259,0,0,5.2186,5.2187,0,0,0,0,0,0,0,0,5.2327,5.2327,5.2307,5.2302,5.2296,5.2269,5.23,5.2299,5.2218,5.2246,5.221,5.2206,5.2211,5.221,5.2211,5.2258,5.2256,5.2186,5.2187,5.2188,5.2188,0,0,0,0,0,0,0,5.2327,5.2328,5.2341,5.2307,5.23,5.2276,5.2271,5.23,5.2248,5.2244,5.2236,5.2233,5.2207,5.2209,5.2209,5.2256,5.2186,5.2188,5.2189,5.2189,5.2366,5.237,0,0,0,0,0,0,5.2335,5.2329,5.2342,5.234,5.2303,5.2279,5.2274,5.2281,5.2247,5.2239,5.2236,5.2229,5.2208,5.2207,5.2208,5.2297,5.2188,5.219,5.2191,5.2363,5.2367,5.2371,0,0,0,0,0,0,5.2335,5.2338,5.2343,5.2332,5.2331,5.2283,5.2293,5.2282,5.2284,5.2242,5.2232,5.2247,5.2205,5.2205,5.2247,5.2295,5.219,5.2192,5.2358,5.2364,5.2369,5.2478,0,0,0,0,0,0,5.2335,5.2338,5.2367,5.2334,5.2332,5.2383,5.2296,5.2284,5.2287,5.2277,5.225,5.2242,5.2202,5.2245,5.2249,5.2296,5.2194,5.2354,5.2361,5.2367,5.247,5.2487,5.2501,0,0,0,0,0,5.2335,5.24,5.2369,5.2371,5.2367,5.2386,5.2385,5.2337,5.2292,5.232,5.2293,5.2243,5.229,5.225,5.2254,5.2302,5.2351,5.2359,5.2367,5.2463,5.2484,5.2501,0,0,0,0,0,0,5.2441,5.2394,5.236,5.2416,5.2405,5.2368,5.2403,5.236,5.2363,5.2353,5.2295,5.2289,5.234,5.2325,5.2282,5.2377,5.2312,5.2321,5.2384,5.2403,5.2418,5.242,5.2195,0,0,0,0,0,5.2471,5.2489,5.2448,5.2501,5.2498,5.2452,5.2458,5.2422,5.2409,5.2405,5.238,5.2371,5.2383,5.2392,5.2401,5.2468,5.2461,5.2503,5.2519,5.2532,5.254,5.2574,5.2592,5.2397,5.2397,5.2397,0,0,5.2533,5.251,5.2525,5.2522,5.2509,5.253,5.2449,5.2474,5.2489,5.2409,5.2446,5.2429,5.2414,5.2469,5.2492,5.2458,5.2592,5.2542,5.2552,5.2554,5.2584,5.2603,5.2619,5.2403,5.2402,5.2401,0,0,5.2656,5.2641,5.2683,5.2672,5.2654,5.2623,5.2634,5.2604,5.2588,5.2625,5.2565,5.2583,5.2605,5.2597,5.2596,5.2717,5.2671,5.2722,5.2802,5.2836,5.2851,5.2865,5.2907,5.2923,5.2731,5.2731,5.2731,0,5.2735,5.2763,5.271,5.2739,5.274,5.2668,5.2711,5.2703,5.269,5.2692,5.2655,5.2681,5.2667,5.2718,5.2748,5.275,5.276,5.2724,5.2853,5.2866,5.2878,5.2918,5.2934,5.2737,5.2737,5.2736,5.2735,0,5.2861,5.2882,5.2918,5.2906,5.2911,5.2947,5.2901,5.2912,5.2877,5.285,5.2889,5.2869,5.2872,5.2882,5.2848,5.2929,5.2909,5.2864,5.2797,5.2903,5.294,5.2955,5.2746,5.2744,5.2742,5.2741,0,0,5.3049,5.3007,5.3022,5.3015,5.299,5.3006,5.3039,5.3042,5.3052,5.3046,5.3073,5.3094,5.3052,5.3051,5.3015,5.3045,5.3142,5.2995,5.2994,5.3023,5.323,5.3263,5.3282,5.3111,5.3114,5.3116,5.3231,0,5.3164,5.3217,5.3171,5.3233,5.3252,5.3184,5.3213,5.3202,5.3178,5.3191,5.3165,5.3181,5.3124,5.3123,5.315,5.3124,5.3182,5.3115,5.3135,5.3137,5.314,5.3301,5.3336,5.3445,5.3245,5.3247,5.3249,0,5.3306,5.3305,5.3369,5.334,5.3346,5.3373,5.3371,5.3384,5.3371,5.3351,5.3351,5.3307,5.3338,5.3274,5.3317,5.3273,5.3279,5.3267,5.327,5.3269,5.3198,5.3304,5.3479,5.3495,5.3271,5.3269,5.3268,0,5.3435,5.345,5.349,5.3487,5.3455,5.3475,5.3463,5.3445,5.345,5.345,5.3452,5.3456,5.3458,5.3463,5.3421,5.3379,5.3469,5.3402,5.3454,5.3456,5.3476,5.3475,5.3653,5.3482,5.3481,5.3481,5.3481,0,5.3568,5.361,5.3547,5.3572,5.3617,5.3564,5.361,5.3591,5.3577,5.3597,5.354,5.356,5.3505,5.352,5.3488,5.3528,5.353,5.3516,5.3506,5.352,5.3522,5.3522,5.3513,5.3485,5.3484,5.3484,5.3483,0,5.372,5.368,5.3718,5.3685,5.3677,5.3712,5.3683,5.3705,5.3678,5.3705,5.3708,5.3666,5.3681,5.364,5.3649,5.3628,5.3686,5.3665,5.369,5.3683,5.3738,5.3733,5.3922,5.3944,5.376,5.3761,5.3763,0,5.3807,5.3837,5.3806,5.3815,5.3806,5.3821,5.3825,5.3775,5.3782,5.3769,5.3793,5.3803,5.3807,5.3834,5.3805,5.3812,5.379,5.3856,5.3791,5.3804,5.379,5.3789,5.3791,5.387,5.3872,5.3874,5.3875,0,5.3965,5.3944,5.3951,5.3953,5.3959,5.3958,5.3953,5.3964,5.391,5.3921,5.3935,5.3939,5.3948,5.3958,5.3959,5.3947,5.3903,5.3896,5.3908,5.3922,5.3935,5.3928,5.3726,5.3892,5.389,5.3889,5.3888,5.3887,5.4086,5.4109,5.4091,5.4102,5.4093,5.409,5.4108,5.4083,5.4094,5.4096,5.4067,5.4087,5.4073,5.4069,5.4062,5.4077,5.4047,5.4065,5.407,5.4075,5.4083,5.3934,5.4077,5.4077,5.4076,5.4076,5.4076,0,5.424,5.4225,5.4236,5.423,5.4239,5.4196,5.4188,5.4198,5.4216,5.4207,5.4213,5.4229,5.4239,5.4212,5.4218,5.4236,5.4216,5.4239,5.4237,5.4235,5.411,5.4099,5.4255,5.4255,5.4255,5.4255,5.4255,5.4255,5.4321,5.4359,5.4336,5.4368,5.4353,5.4372,5.4371,5.4368,5.436,5.438,5.4388,5.437,5.4353,5.4358,5.4365,5.4357,5.4362,5.4392,5.4377,5.4261,5.4244,5.4227,5.4215,5.4394,5.4394,5.45,5.4501,5.4501]}]]